EW8320 Weather Reports


Display with metric or nautical units.
time (UTC)temp
F
wind
direction
speed
MPH
gust
MPH
rain 1hr
in
rain 24hr
in
rain mn
in
humidity
%
barometer
mb
20260510194324 70 200 0.0 0.0 0.00 0.00 0.00 41 1018.9
20260510193323 71 107 0.0 0.0 0.00 0.00 0.00 41 1018.9
20260510192324 70 72 0.0 0.0 0.00 0.00 0.00 42 1019.1
20260510191324 70 136 0.0 0.0 0.00 0.00 0.00 43 1019.2
20260510185325 68 128 0.0 0.0 0.00 0.00 0.00 42 1019.5
20260510184325 68 85 0.0 0.0 0.00 0.00 0.00 42 1019.5
20260510183324 67 93 0.0 0.0 0.00 0.00 0.00 43 1019.7
20260510182424 67 104 0.0 0.0 0.00 0.00 0.00 44 1019.7
20260510180424 66 104 0.0 0.0 0.00 0.00 0.00 40 1019.9
20260510175439 68 86 0.0 0.0 0.00 0.00 0.00 37 1020.0
20260510174424 70 108 0.0 0.0 0.00 0.00 0.00 77 1020.0
20260510174325 70 106 0.0 0.0 0.00 0.00 0.00 84 1020.1
20260510173324 67 112 0.0 0.0 0.00 0.00 0.00 100 1020.1
20260510171323 65 85 0.0 0.0 0.00 0.00 0.00 37 1020.2
20260510170325 63 90 0.0 0.0 0.00 0.00 0.00 44 1020.2
20260510165422 61 89 0.0 0.0 0.00 0.00 0.00 46 1020.4
20260510164424 59 90 0.0 0.0 0.00 0.00 0.00 49 1020.9
20260510163424 59 108 0.0 0.0 0.00 0.00 0.00 51 1020.9
20260510163323 59 92 0.0 0.0 0.00 0.00 0.00 51 1020.9
20260510162324 57 84 0.0 0.0 0.00 0.00 0.00 53 1021.1
20260510161324 55 132 0.0 0.0 0.00 0.00 0.00 55 1021.3
20260510155325 52 120 0.0 0.0 0.00 0.00 0.00 54 1021.4
20260510154323 52 112 0.0 0.0 0.00 0.00 0.00 56 1021.5
20260510154227 52 101 0.0 0.0 0.00 0.00 0.00 56 1021.3
20260510153324 50 157 0.0 0.0 0.00 0.00 0.00 60 1021.3
20260510152326 48 157 0.0 0.0 0.00 0.00 0.00 62 1021.4
20260510151423 47 183 0.0 0.0 0.00 0.00 0.00 63 1021.4
20260510145424 44 202 0.0 0.0 0.00 0.00 0.00 71 1021.4
20260510144425 42 192 0.0 0.0 0.00 0.00 0.00 73 1021.4
20260510143326 40 202 0.0 0.0 0.00 0.00 0.00 75 1021.3
20260510142322 39 202 0.0 0.0 0.00 0.00 0.00 76 1021.3
20260510141422 38 225 0.0 0.0 0.00 0.00 0.00 79 1021.5
20260510140424 37 202 0.0 0.0 0.00 0.00 0.00 81 1021.3
20260510135424 36 202 0.0 0.0 0.00 0.00 0.00 82 1021.2
20260510134522 35 236 0.0 0.0 0.00 0.00 0.00 81 1021.1
20260510133524 36 190 0.0 0.0 0.00 0.00 0.00 81 1021.1
20260510133423 36 209 0.0 0.0 0.00 0.00 0.00 81 1021.0
20260510132424 38 228 0.0 0.0 0.00 0.00 0.00 81 1021.0
20260510130423 38 230 0.0 0.0 0.00 0.00 0.00 80 1020.8
20260510125424 38 266 0.0 0.0 0.00 0.00 0.00 80 1021.0
20260510124523 38 286 0.0 0.0 0.00 0.00 0.00 81 1020.8
20260510123524 38 245 0.0 0.0 0.00 0.00 0.00 81 1020.9
20260510122523 37 268 0.0 0.0 0.00 0.00 0.00 82 1021.0
20260510121524 37 242 0.0 0.0 0.00 0.00 0.00 80 1021.1
20260510120524 38 213 0.0 0.0 0.00 0.00 0.00 80 1021.1
20260510115622 39 253 0.0 0.0 0.00 0.00 0.00 79 1021.2
20260510115524 39 259 0.0 0.0 0.00 0.00 0.00 79 1021.2
20260510114622 39 260 0.0 0.0 0.00 0.00 0.00 79 1021.2
20260510113623 39 263 0.0 0.0 0.00 0.00 0.00 80 1021.3
20260510112624 38 269 0.0 0.0 0.00 0.00 0.00 82 1021.3
20260510112525 38 276 0.0 0.0 0.00 0.00 0.00 82 1021.3
20260510111523 37 261 0.0 0.0 0.00 0.00 0.00 84 1021.3
20260510110523 35 234 0.0 0.0 0.00 0.00 0.00 85 1021.4
20260510104525 37 292 0.0 0.0 0.00 0.00 0.00 84 1021.6
20260510103524 38 353 0.0 0.0 0.00 0.00 0.00 81 1021.6
20260510102525 39 225 0.0 0.0 0.00 0.00 0.00 81 1021.6
20260510101623 36 270 0.0 0.0 0.00 0.00 0.00 81 1021.6
20260510100622 38 188 0.0 0.0 0.00 0.00 0.00 80 1021.6
20260510095624 39 228 0.0 0.0 0.00 0.00 0.00 79 1021.8
20260510094624 40 225 0.0 0.0 0.00 0.00 0.00 77 1021.8
20260510093623 41 202 0.0 0.0 0.00 0.00 0.00 74 1021.8
20260510092722 43 233 0.0 0.0 0.00 0.00 0.00 73 1021.8
20260510091722 43 270 0.0 0.0 0.00 0.00 0.00 73 1022.0
20260510090725 43 258 0.0 0.0 0.00 0.00 0.00 72 1022.0
20260510090624 43 265 0.0 0.0 0.00 0.00 0.00 72 1022.0
20260510085723 44 269 0.0 0.0 0.00 0.00 0.00 71 1021.8
20260510084724 44 274 0.0 0.0 0.00 0.00 0.00 71 1021.8
20260510083724 44 278 0.0 0.0 0.00 0.00 0.00 71 1021.8
20260510082723 44 271 0.0 0.0 0.00 0.00 0.00 71 1022.0
20260510081723 44 271 0.0 0.0 0.00 0.00 0.00 70 1022.0
20260510080726 45 282 0.0 0.0 0.00 0.00 0.00 71 1022.2
20260510074725 45 279 0.0 0.0 0.00 0.00 0.00 70 1022.4
20260510073724 46 266 0.0 0.0 0.00 0.00 0.00 68 1022.4
20260510071740 47 281 0.0 0.0 0.00 0.00 0.00 66 1022.4
20260510070823 47 290 0.0 0.0 0.00 0.00 0.00 65 1022.5
20260510065015 48 285 0.0 0.0 0.00 0.00 0.00 64 1022.5
20260510064916 48 286 0.0 0.0 0.00 0.00 0.00 64 1022.4
20260510063918 48 282 0.0 0.0 0.00 0.00 0.00 64 1022.5
20260510062917 48 279 0.0 0.0 0.00 0.00 0.00 66 1022.4
20260510061916 48 274 0.0 0.0 0.00 0.00 0.00 65 1022.4
20260510060933 49 273 0.0 0.0 0.00 0.00 0.00 64 1022.5
20260510060018 49 279 0.0 0.0 0.00 0.00 0.00 64 1022.5
20260510055116 49 273 0.0 0.0 0.00 0.00 0.00 63 1022.6
20260510054115 47 271 0.0 0.0 0.00 0.00 0.00 68 1022.5
20260510053117 46 180 0.0 0.0 0.00 0.00 0.00 69 1022.5
20260510052215 46 180 0.0 0.0 0.00 0.00 0.00 70 1022.7
20260510052117 46 180 0.0 0.0 0.00 0.00 0.00 70 1022.6
20260510051215 46 180 0.0 0.0 0.00 0.00 0.00 68 1022.7
20260510050219 48 189 0.0 0.0 0.00 0.00 0.00 64 1022.7
20260510045217 50 247 0.0 0.0 0.00 0.00 0.00 61 1023.0
20260510043317 49 268 0.0 0.0 0.00 0.00 0.00 64 1023.0
20260510042317 49 180 0.0 0.0 0.00 0.00 0.00 63 1022.9
20260510041315 50 180 0.0 0.0 0.00 0.00 0.00 61 1022.7
20260510040319 50 180 0.0 0.0 0.00 0.00 0.00 60 1022.5
20260510035416 50 180 0.0 0.0 0.00 0.00 0.00 61 1022.5
20260510033420 53 180 0.0 0.0 0.00 0.00 0.00 55 1022.4
20260510032416 54 180 0.0 0.0 0.00 0.00 0.00 53 1022.4
20260510031416 55 247 0.0 0.0 0.00 0.00 0.00 52 1022.5
20260510030415 55 279 0.0 0.0 0.00 0.00 0.00 53 1022.2
20260510024417 58 315 0.0 0.0 0.00 0.00 0.00 48 1022.2
20260510023415 60 315 0.0 0.0 0.00 0.00 0.00 44 1022.2
20260510021534 64 310 0.0 0.0 0.00 0.00 0.00 36 1022.1
20260510020616 65 315 0.0 0.0 0.00 0.00 0.00 38 1022.3
20260510015616 66 337 0.0 0.0 0.00 0.00 0.00 34 1022.2
20260510014616 66 337 0.0 0.0 0.00 0.00 0.00 35 1022.1
20260510013715 66 337 0.0 0.0 0.00 0.00 0.00 33 1022.2
20260510011717 69 328 0.0 0.0 0.00 0.00 0.00 28 1022.3
20260510005717 69 323 0.0 0.0 0.00 0.00 0.00 26 1022.3
20260510004718 70 80 0.0 0.0 0.00 0.00 0.00 29 1022.2
20260510003717 70 77 0.0 0.0 0.00 0.00 0.00 30 1022.1
20260510001816 74 318 0.0 0.0 0.00 0.00 0.00 100 1022.4
20260510000816 76 295 0.0 0.0 0.00 0.00 0.00 100 1022.4
20260509235818 77 337 0.0 0.0 0.00 0.00 0.00 100 1022.3
20260509234817 76 95 0.0 0.0 0.00 0.00 0.00 100 1022.4
20260509233816 74 127 0.0 0.0 0.00 0.00 0.00 99 1022.6
20260509232816 75 51 0.0 0.0 0.00 0.00 0.00 100 1022.7
20260509231834 75 284 0.0 0.0 0.00 0.00 0.00 100 1022.7
20260509231717 75 172 0.0 0.0 0.00 0.00 0.00 100 1022.5
20260509230718 75 90 0.0 0.0 0.00 0.00 0.00 100 1022.6
20260509225716 74 132 0.0 0.0 0.00 0.00 0.00 99 1022.6
20260509224717 73 78 0.0 0.0 0.00 0.00 0.00 100 1022.7
20260509223815 74 64 0.0 0.0 0.00 0.00 0.00 100 1023.0
20260509222817 73 102 0.0 0.0 0.00 0.00 0.00 100 1023.0
20260509221915 71 153 0.0 0.0 0.00 0.00 0.00 100 1023.0
20260509220916 66 102 0.0 0.0 0.00 0.00 0.00 36 1023.1
20260509215915 66 102 0.0 0.0 0.00 0.00 0.00 37 1023.3
20260509214919 66 59 0.0 0.0 0.00 0.00 0.00 37 1023.2
20260509213915 61 311 0.0 0.0 0.00 0.00 0.00 38 1023.5
20260509211917 60 40 0.0 0.0 0.00 0.00 0.00 38 1023.7
20260509210916 60 135 0.0 0.0 0.00 0.00 0.00 38 1023.8
20260509205918 60 90 0.0 0.0 0.00 0.00 0.00 40 1023.8
20260509205015 61 89 0.0 0.0 0.00 0.00 0.00 46 1023.9
20260509204017 60 349 0.0 0.0 0.00 0.00 0.00 42 1024.0
20260509203117 59 91 0.0 0.0 0.00 0.00 0.00 41 1024.3
20260509202118 59 95 0.0 0.0 0.00 0.00 0.00 39 1024.3
20260509201117 59 64 0.0 0.0 0.00 0.00 0.00 41 1024.4
20260509200115 59 92 0.0 0.0 0.00 0.00 0.00 41 1024.4